Location: Iroquois Falls
(48.7680°N, 80.6732°W)
Time: 05:54:08
(UTC-04:00)

ISS - Visible Passes

Search period start: 28 May 2022 00:00
Search period end: 07 June 2022 00:00
Orbit: 414 x 421 km, 51.6° (Epoch: 28 May)

Date Brightness Start Highest point End Pass type
(mag) Time Alt. Az. Time Alt. Az. Time Alt. Az.
28 May -2.3 22:48:45 10° W 22:51:34 25° SW 22:53:07 18° S visible
29 May -2.9 22:00:25 10° WNW 22:03:33 37° SSW 22:06:40 10° SE visible
30 May -1.3 22:50:30 10° WSW 22:51:36 11° SW 22:52:43 10° SSW visible
31 May -1.6 22:01:19 10° W 22:03:38 17° SW 22:05:57 10° S visible
